Location: Bruneau Dunes Observatory
(42.9024°N, 115.6902°W)
Time: 00:41:06
(UTC-06:00)

Daily predictions for brighter satellites

Satellite Brightness Start Highest point End
(mag) Time Altitude Azimuth Time Altitude Azimuth Time Altitude Azimuth
Cosmos 2237 Rocket 3.0 00:09:10 41° NE 00:09:10 41° NE 00:12:49 10° NNE
Cosmos 2181 Rocket 4.0 00:06:36 10° N 00:12:39 77° NNE 00:12:39 77° NNE
Cosmos 1980 4.3 00:15:03 50° NNE 00:15:03 50° NNE 00:19:12 10° NNE
ATLAS 3B R/B 4.0 00:08:28 10° WNW 00:13:35 24° WSW 00:14:07 24° WSW
Cosmos 1709 Rocket 4.0 00:14:58 77° NNW 00:14:58 77° NNW 00:20:50 10° N
H-2A R/B 3.8 00:21:12 32° NNW 00:21:12 32° NNW 00:23:38 10° NNW
Cosmos 2297 4.4 00:26:43 10° NNW 00:31:07 49° NNE 00:31:07 49° NNE
NOSS 3-2 (C) 4.2 00:26:53 10° NW 00:34:19 58° WSW 00:34:19 58° WSW
Cosmos 2278 Rocket 3.3 00:40:42 10° NW 00:44:36 38° WNW 00:44:36 38° WNW
Lacrosse 5 4.4 00:51:49 10° WNW 00:55:26 19° NNW 00:59:01 10° NNE
NOSS 3-4 (A) 4.5 01:00:35 36° WNW 01:02:10 42° NW 01:08:22 10° NNE
NOSS 3-4 (C) 4.5 01:00:45 37° WNW 01:02:16 43° NW 01:08:29 10° NNE
CENTAUR R/B 3.0 00:56:59 10° NW 01:04:41 84° W 01:04:41 84° W
ATLAS CENTAUR R/B 4.4 01:01:49 10° NNW 01:02:04 12° NNW 01:02:04 12° NNW
Cosmos 2219 Rocket 4.1 01:04:32 21° WNW 01:06:11 24° NW 01:10:46 10° N
CZ-2C R/B 3.7 01:01:19 10° NNE 01:04:45 41° N 01:04:45 41° N
SL-16 R/B 3.3 01:17:28 40° NNE 01:17:28 40° NNE 01:21:03 10° NNE
USA 215 4.0 01:18:24 43° ENE 01:19:40 48° NNE 01:25:54 10° NW
Cosmos 2333 Rocket 4.3 01:31:37 17° WNW 01:33:18 19° NW 01:37:19 10° N
Cosmos 1943 Rocket 4.0 01:29:23 10° N 01:33:36 22° NE 01:33:47 22° NE
COSMOS 2455 4.0 01:29:01 10° NW 01:32:39 37° NW 01:32:39 37° NW
Cosmos 2237 Rocket 4.2 01:50:57 19° WNW 01:51:51 20° NW 01:55:55 10° N
Cosmos 2369 Rocket 3.3 01:48:18 10° NNW 01:52:24 40° NNE 01:52:24 40° NNE
Mayak 1.5 02:24:11 10° NNW 02:25:11 15° NNW 02:25:11 15° NNW
BREEZE-M DEB (TANK) 4.3 02:56:05 56° ENE 02:56:05 56° ENE 03:05:17 10° ENE
SL-16 R/B 4.5 02:59:18 14° WNW 03:00:28 14° NW 03:03:29 10° NNW
USA 215 4.3 03:05:44 31° WNW 03:05:44 31° WNW 03:09:02 10° NW
Cosmos 841 Rocket 4.4 03:04:43 45° NNE 03:04:43 45° NNE 03:08:18 10° NNE
Resurs 1-4 Rocket 3.7 03:06:19 10° NE 03:10:36 25° E 03:10:36 25° E
Cosmos 1821 Rocket 4.3 03:11:01 59° E 03:11:01 59° E 03:17:00 10° NNE
ADEOS Rocket 3.1 03:11:25 10° NNE 03:16:10 60° ENE 03:16:10 60° ENE
Cosmos 1943 Rocket 3.4 03:12:21 10° NNW 03:15:15 31° NW 03:15:15 31° NW
SL-16 R/B 3.3 03:18:25 37° ESE 03:20:19 48° ENE 03:26:14 10° N
Cosmos 1656 Rocket 4.0 03:15:44 10° NNW 03:21:13 63° NE 03:21:13 63° NE
Cosmos 1934 Rocket 4.3 03:21:40 54° E 03:21:53 54° E 03:27:46 10° NNE
ARIANE 5 R/B 4.1 03:17:33 10° NE 03:21:57 26° E 03:22:15 26° E
Meteor 2-1 Rocket 4.5 03:28:22 61° ENE 03:28:22 61° ENE 03:33:27 10° NNE
CZ-2D R/B 3.2 03:23:30 10° NNE 03:28:25 36° E 03:28:34 35° E
Cosmos 2369 Rocket 4.3 03:32:58 10° NW 03:34:09 15° WNW 03:34:09 15° WNW
Cosmos 2221 3.6 03:44:23 44° NE 03:44:23 44° NE 03:47:36 10° NNE
MOS 1 Rocket 4.3 03:42:49 10° NNE 03:46:36 36° E 03:46:36 36° E
Cosmos 372 Rocket 4.2 03:42:57 10° NNW 03:47:21 65° N 03:47:21 65° N
IRS-1D 3.9 03:45:38 10° NNE 03:50:42 54° E 03:50:58 54° ESE
Cosmos 1805 Rocket 4.4 03:48:03 10° N 03:52:06 48° ENE 03:52:06 48° ENE
Cosmos 540 Rocket 3.6 03:53:20 68° NNW 03:53:20 68° NNW 03:57:54 10° NNE
Cosmos 1315 Rocket 4.4 03:50:21 10° N 03:53:57 30° ENE 03:54:15 30° E
Cosmos 2239 Rocket 4.5 03:54:10 65° W 03:54:21 65° W 04:00:38 10° N
Cosmos 1726 4.0 03:57:13 28° ENE 03:57:13 28° ENE 03:59:54 10° NNE
BREEZE-M DEB (TANK) 4.1 03:55:03 42° WNW 03:57:06 66° N 04:17:54 10° ENE
Spot 4 Rocket 4.1 03:54:40 10° NNE 03:59:50 67° ESE 04:00:06 66° ESE
CBERS-1 4.2 03:55:24 10° N 04:00:02 61° NW 04:00:02 61° NW
AQUA 4.1 03:56:11 10° N 04:00:15 59° NNW 04:00:15 59° NNW
Cosmos 292 Rocket 4.3 04:02:20 49° ESE 04:02:24 50° ESE 04:07:04 10° NNE
UNK 4.0 04:08:22 57° NNW 04:08:22 57° NNW 04:12:05 10° NNW
BREEZE-M DEB (TANK) 3.7 03:57:39 10° W 04:08:12 60° NNW 04:10:56 10° ENE
ADEOS 3.9 04:03:02 10° NNE 04:08:12 59° E 04:09:06 51° SE
Cosmos 2098 Rocket 3.8 04:14:11 54° WNW 04:14:11 54° WNW 04:18:48 10° N
Cosmos 783 Rocket 4.3 04:14:09 79° SSW 04:14:30 88° WNW 04:19:47 10° NNE
UNKNOWN OBJECT B 3.7 04:15:06 10° NNE 04:19:00 43° E 04:19:22 42° ESE
Sich 1 3.2 04:17:39 10° N 04:22:02 68° E 04:22:30 62° ESE
MOZ.5/SAFIR/RUBIN 5/SL-8 4.0 04:21:26 44° SE 04:22:47 69° ENE 04:27:28 10° N
Lacrosse 5 3.3 04:19:35 10° NW 04:24:20 38° NNE 04:29:05 10° ESE
Cosmos 1400 Rocket 4.1 04:20:34 10° NNW 04:22:48 31° NNW 04:22:48 31° NNW
Cosmos 2285 Rocket 3.9 04:28:21 50° SSW 04:30:10 80° WNW 04:36:37 10° NNE
ERS-1 4.4 04:25:17 10° N 04:30:11 63° WNW 04:30:36 60° W
Cosmos 2173 Rocket 4.4 04:37:18 20° SSE 04:41:43 62° E 04:47:59 10° NNE
Cosmos 1470 Rocket 4.5 04:39:09 10° N 04:43:20 46° ENE 04:47:15 11° SSE
Cosmos 1538 Rocket 4.1 04:42:01 41° S 04:43:57 77° ESE 04:49:20 10° NNE
USA 229 DEB 4.0 04:37:24 10° NW 04:44:11 47° WSW 04:50:08 14° S
USA 229 4.0 04:37:30 10° NW 04:44:18 47° WSW 04:51:13 10° S
Cosmos 1833 Rocket 4.3 04:42:52 12° SSE 04:47:18 30° ESE 04:52:08 10° NE
NOSS 3-1 (A) 4.1 04:41:50 10° NW 04:49:28 81° NE 04:57:55 10° SE
Resurs 1-4 Rocket 2.6 04:45:40 10° N 04:50:36 42° WNW 04:51:41 38° W
COSMOS 2406 3.7 04:49:25 37° W 04:50:56 45° WNW 04:56:25 10° NNE
Cosmos 1515 Rocket 4.2 04:50:19 24° SSE 04:52:42 54° E 04:57:02 10° NNE
Cosmos 1633 Rocket 2.9 04:49:17 10° NNW 04:53:37 66° W 04:54:31 51° SSW
Cosmos 1300 2.5 04:53:31 68° WSW 04:53:46 72° W 04:57:37 10° N
BREEZE-M DEB (TANK) 3.0 04:54:20 29° WNW 04:56:02 68° NNE 05:03:44 10° E
Cosmos 2228 Rocket 3.2 04:54:30 32° S 04:56:31 73° E 05:00:58 10° NNE
ARIANE 5 R/B 3.2 04:56:17 10° N 05:01:09 40° WNW 05:02:35 33° WSW
ADEOS Rocket 4.4 04:58:22 10° NNW 05:01:55 18° WNW 05:03:07 17° WNW
Cosmos 1459 Rocket 3.9 04:57:49 22° S 05:01:58 89° E 05:08:04 10° N
Meteor 2-2 Rocket 4.3 04:59:48 25° S 05:03:28 86° W 05:09:34 10° N
SL-16 R/B 3.3 05:03:31 28° WSW 05:04:06 29° W 05:09:25 10° NW
SL-27 R/B 3.3 05:06:13 33° WNW 05:06:13 33° WNW 05:09:13 10° N
CZ-2D R/B 3.1 05:03:43 10° N 05:08:23 31° WNW 05:09:53 27° W
Cosmos 1455 3.7 05:06:24 10° SSE 05:09:48 34° E 05:13:14 10° NNE
Cosmos 2278 3.8 05:04:46 10° NNW 05:10:27 78° ENE 05:16:06 10° SSE
Cosmos 1680 Rocket 4.5 05:06:22 12° S 05:11:03 46° ESE 05:16:07 10° NNE
Cosmos 482 Debris 3.1 05:15:43 78° SW 05:15:45 79° SW 05:19:09 10° SE
Cosmos 1328 Rocket 3.6 05:15:01 34° SW 05:16:42 57° W 05:21:00 10° N
Cosmos 1697 Rocket 3.7 05:11:52 10° NNW 05:17:23 50° ENE 05:22:52 10° SE
NOSS 3-1 (C) 4.1 05:10:26 10° NW 05:17:55 59° WSW 05:26:08 10° SSE
PSLV R/B 4.4 05:20:42 10° NNE 05:24:55 48° E 05:29:04 10° S
Cosmos 1315 Rocket 4.3 05:27:23 10° NW 05:29:56 19° W 05:29:56 19° W
PSLV R/B 3.7 05:29:55 35° SW 05:30:25 38° SSW 05:33:27 10° SE
Cosmos 1726 3.8 05:31:50 17° WNW 05:32:00 17° WNW 05:34:32 10° NNW
Cosmos 773 Rocket 4.3 05:31:00 22° SW 05:34:10 52° WNW 05:39:22 10° N
Cosmos 2061 Rocket 4.1 05:28:52 15° SSW 05:34:11 60° W 05:40:33 10° N
COSMOS 2487 2.4 05:33:41 20° SSW 05:36:03 85° ESE 05:39:38 10° NNE
Tiangong 2 1.7 05:35:03 28° SSW 05:36:17 43° SSE 05:39:22 10° E
Cosmos 2082 Rocket 2.3 05:31:19 13° SSW 05:36:22 77° ESE 05:42:02 10° NNE
Cosmos 1933 Rocket 3.8 05:33:00 10° NNW 05:37:20 50° W 05:41:37 10° SSW
ADEOS II 2.1 05:32:14 10° NNE 05:37:31 86° WNW 05:42:46 10° SSW
Cosmos 2016 Rocket 4.0 05:38:32 10° SSW 05:44:31 61° W 05:50:35 10° N
Cosmos 1151 Rocket 3.2 05:41:53 17° SSW 05:45:00 49° WNW 05:49:10 10° N
PSLV R/B 3.9 05:42:17 10° N 05:46:27 77° WNW 05:50:33 10° SSW
Shenzhou-11 Module 2.1 05:47:29 23° WSW 05:49:12 63° SSE 05:52:16 10° E
Meteor 1-31 Rocket 4.5 05:47:49 10° NNE 05:51:27 34° E 05:55:04 10° SSE
Cosmos 1892 3.0 05:48:05 10° NNW 05:51:45 43° W 05:55:24 10° SSW
Cosmos 1864 Rocket 4.5 05:46:10 10° SSW 05:52:25 77° W 05:58:39 10° N
CZ-4B R/B 3.5 05:48:17 10° NNE 05:53:46 71° ESE 05:59:06 10° S
Meteor 2-3 Rocket 3.8 05:48:50 10° NNW 05:54:20 54° W 05:59:51 10° S
Landsat 4 3.8 05:50:39 10° SSE 05:54:22 78° ENE 05:58:09 10° N
Okean O Rocket 1.6 05:52:01 10° NNE 05:56:28 85° WNW 06:00:51 10° SSW
Cosmos 1707 Rocket 4.3 05:52:46 10° S 05:57:04 56° E 06:01:23 10° NNE
Cosmos 1725 Rocket 4.0 05:52:36 10° SSW 05:58:45 68° W 06:04:56 10° N
Cosmos 1825 2.9 05:57:54 10° N 06:01:41 58° E 06:05:25 10° SSE
Cosmos 1408 3.0 06:00:16 10° N 06:03:53 66° E 06:07:27 10° SSE
Cosmos 1656 3.9 05:59:10 10° NW 06:04:38 49° WSW 06:10:06 10° S
Cosmos 2369 4.2 06:00:15 10° NW 06:05:24 37° WSW 06:10:31 10° S
Hubble Space Telescope 3.1 06:05:55 10° SSW 06:06:30 10° S 06:07:05 10° S
Lacrosse 5 2.1 06:02:34 10° WNW 06:07:24 46° SW 06:12:13 10° SSE
PAYLOAD B 4.3 06:05:01 10° N 06:10:37 74° WNW 06:16:10 10° SSW
Cosmos 2322 Rocket 4.4 06:07:06 10° N 06:12:05 30° NE 06:17:01 10° ESE
CZ-4B R/B 3.5 06:08:36 10° N 06:12:54 47° WNW 06:17:13 10° SW
MTI 4.0 06:16:50 10° SSE 06:20:01 76° ENE 06:23:14 10° N
Tsikada Rocket 4.3 06:17:30 10° NNW 06:23:30 46° W 06:29:32 10° SSW
SL-16 R/B 4.0 06:18:42 10° N 06:23:58 37° ENE 06:29:11 10° SE
Cosmos 1371 Rocket 4.0 06:20:47 10° NNW 06:26:00 71° WSW 06:31:15 10° S
Cosmos 1833 Rocket 3.3 06:25:43 10° SW 06:31:02 42° WNW 06:36:24 10° NNE
ATLAS 2AS CENTAUR R/B 3.2 06:26:11 10° NW 06:34:16 81° NE 06:41:43 10° SE
